Theta_e
287 288 289 289 290 290 291 291 290 290 290 290 289 289 289 289 290 290 291 291 291 292 293 293 293 294 294 294 294 294 294 295 294 294 294 294 294 294 294 295 295 295 295 295 295 295 295 295 296 296 296 297 298 299 300 300 300 300 300 301 301 301 301 301 302 302 303 304 305
287 288 288 288 288 289 290 290 289 289 289 289 289 289 289 289 289 290 290 290 291 292 292 293 292 293 293 293 293 293 293 294 294 294 294 294 294 294 294 294 294 294 294 294 294 294 295 295 295 295 295 296 297 298 299 300 300 300 300 299 300 300 300 301 301 301 302 302 303
287 287 287 288 288 288 289 289 288 287 287 288 288 289 289 289 289 290 290 291 291 291 292 292 292 292 292 292 293 293 293 293 293 293 294 294 294 294 294 293 293 293 293 293 293 294 294 294 295 295 295 295 296 297 298 299 299 299 300 299 300 301 301 301 301 301 302 302 303
287 287 287 288 287 287 287 288 287 287 286 287 288 288 288 289 290 290 290 290 290 290 291 291 291 291 291 292 292 292 292 292 292 292 293 293 293 293 293 293 292 292 292 293 293 293 293 294 294 294 294 294 295 296 297 299 299 299 300 300 301 301 301 301 301 301 302 302 302
286 287 287 287 287 287 286 286 286 286 287 287 288 288 289 289 289 289 290 290 290 291 291 290 291 291 291 291 291 291 291 291 291 291 292 292 292 292 291 291 291 291 292 292 292 293 293 293 294 294 294 293 294 295 296 298 298 299 300 301 301 301 301 301 301 301 301 301 301
286 286 286 287 287 286 286 286 286 286 287 287 287 287 288 289 289 289 290 290 290 290 290 289 290 290 290 290 290 290 290 290 290 291 291 291 291 291 290 290 290 290 291 291 291 292 292 292 293 293 293 293 293 294 295 296 298 299 300 300 301 301 302 301 301 301 301 301 301
286 286 286 285 286 286 286 286 286 286 286 287 287 287 287 288 288 288 288 289 289 289 289 290 289 290 290 289 289 289 289 289 290 290 290 290 290 290 289 289 290 290 290 290 290 291 291 291 292 292 292 292 293 293 294 295 296 297 298 299 301 302 302 301 301 301 301 300 300
284 285 285 285 285 285 285 286 286 286 287 287 287 287 287 287 287 287 288 288 289 289 289 289 289 289 289 289 289 289 289 288 289 289 289 290 289 289 289 289 289 289 289 289 289 290 290 291 291 292 292 292 292 292 293 294 295 295 297 297 299 301 302 302 302 302 301 300 299
285 285 285 285 285 285 286 286 286 286 286 287 287 287 287 287 287 287 287 288 288 289 289 289 289 289 289 288 288 288 288 288 289 289 289 289 289 289 290 290 290 290 289 289 289 289 290 290 291 291 292 292 292 292 292 293 294 294 295 296 297 299 301 302 302 302 301 300 300
287 287 287 287 287 287 287 286 286 286 286 286 286 286 286 286 287 287 287 289 288 288 288 288 288 288 288 288 288 289 289 289 289 289 289 290 290 290 290 291 291 291 291 290 290 290 289 290 290 290 291 291 291 291 292 293 293 294 294 295 296 298 299 300 301 301 301 300 300
287 288 288 288 288 288 287 287 287 287 286 286 286 286 286 287 287 287 288 288 288 288 287 288 288 288 288 288 289 289 289 290 290 290 290 290 291 291 291 291 291 291 291 291 291 291 291 291 290 290 290 290 290 291 291 292 292 293 293 294 295 296 297 298 299 300 301 300 299
288 288 288 288 288 288 288 288 289 288 288 287 287 287 287 288 288 288 288 287 287 287 287 288 288 288 288 289 289 289 290 290 290 290 290 290 290 291 291 291 291 291 291 291 291 291 291 291 290 290 289 290 290 290 291 291 291 292 292 293 294 295 296 297 298 299 300 300 300
290 290 290 290 289 288 288 289 290 290 290 289 289 288 289 289 289 288 288 287 287 288 288 288 288 288 289 289 289 290 290 290 290 290 290 290 290 290 290 291 291 291 291 291 291 291 291 291 290 290 289 289 290 290 290 290 290 291 291 291 292 293 294 295 297 298 299 299 299
290 291 291 291 290 290 290 290 291 291 291 290 290 289 289 289 289 288 287 287 288 288 288 288 289 289 289 290 290 290 290 290 290 290 290 290 290 290 290 291 291 291 291 291 292 291 291 291 290 290 289 289 290 290 290 290 290 290 290 291 291 292 293 294 296 297 298 299 298
290 290 290 290 290 290 290 290 291 291 290 290 289 289 289 289 288 288 288 287 288 288 288 289 289 290 290 290 290 290 290 290 290 290 290 289 290 290 290 290 290 291 291 291 291 291 291 290 290 290 290 290 290 290 290 290 290 290 290 290 291 291 292 294 295 296 297 298 298
289 289 289 289 289 289 289 289 290 290 289 289 289 288 288 288 288 288 288 288 288 289 289 289 289 290 290 290 290 290 290 290 290 290 290 290 290 290 290 290 290 290 291 291 291 291 291 291 291 290 290 290 290 290 290 290 290 290 290 291 291 291 292 293 294 295 296 297 298
288 288 288 288 288 288 288 288 288 288 288 288 288 288 288 288 288 289 288 288 289 289 289 289 290 290 290 290 291 291 291 290 290 290 290 290 290 290 290 290 290 290 290 290 290 291 291 291 291 291 291 291 290 290 290 290 290 290 290 291 291 292 292 293 294 295 296 297 297
287 287 287 287 287 287 287 287 287 287 287 287 288 288 288 288 289 289 289 289 289 289 289 289 289 290 290 290 290 290 291 291 290 290 290 290 290 290 290 290 290 290 291 291 290 291 291 291 291 291 291 291 291 291 291 291 291 291 291 291 292 292 292 293 293 294 295 296 297
286 286 286 286 286 286 286 287 287 287 287 287 288 288 288 288 289 289 289 289 289 289 289 289 289 290 290 290 290 290 290 290 290 290 290 290 290 290 290 290 291 291 291 291 291 291 291 291 292 292 292 291 291 291 291 291 291 291 291 291 292 292 292 293 293 294 295 296 297
286 286 286 286 286 287 287 287 287 287 287 288 288 288 288 288 288 288 289 289 289 289 289 289 289 289 290 290 290 290 290 290 290 290 290 290 290 291 291 290 291 291 291 291 291 291 291 291 291 292 292 291 291 291 291 291 291 291 291 291 291 291 292 292 293 294 294 295 296
286 286 286 286 286 287 287 287 287 287 287 288 287 287 288 288 288 288 288 288 289 289 289 289 289 289 289 289 289 289 290 290 290 290 290 290 290 290 291 291 291 291 291 291 291 291 291 291 291 291 291 291 291 291 291 291 291 291 291 291 291 291 291 292 292 293 293 294 295
286 286 286 286 286 287 287 287 287 287 287 287 287 287 287 288 288 288 288 288 288 288 288 288 288 288 288 289 289 289 289 290 290 290 290 290 290 291 291 291 291 291 291 291 291 291 291 291 291 291 291 291 291 291 291 291 290 290 290 291 291 291 291 292 292 293 293 294 295
286 286 286 286 286 286 286 286 286 286 286 286 287 287 287 287 287 287 287 288 288 288 287 288 288 288 288 288 288 288 289 289 289 289 290 290 290 290 290 291 291 291 290 290 291 291 291 291 291 291 291 291 291 291 291 291 290 290 290 290 290 291 291 292 293 293 293 294 294
286 286 286 286 286 286 286 286 286 286 286 286 286 286 286 286 286 286 287 287 286 286 287 287 287 287 287 288 288 288 288 288 288 288 289 289 289 290 290 290 290 290 290 290 291 291 291 290 290 290 290 291 290 290 290 290 290 290 290 290 290 290 291 292 293 294 294 295 295
285 285 285 286 285 285 285 285 285 285 285 285 285 285 285 285 286 285 286 285 285 286 286 286 286 286 287 287 287 287 287 287 287 287 288 288 289 289 289 289 289 289 290 290 290 291 291 290 290 290 290 290 290 290 290 290 290 290 290 290 290 290 290 291 292 293 294 294 295
285 285 284 285 285 284 284 284 284 284 284 284 284 284 284 284 285 285 284 284 285 285 285 285 285 285 286 286 286 286 286 287 287 287 287 287 288 288 288 288 289 289 289 290 290 290 290 291 290 290 290 290 290 290 290 290 290 290 290 290 290 290 290 290 291 292 293 294 295
284 284 284 284 284 284 283 284 284 284 284 284 283 283 284 284 284 284 284 284 284 284 284 285 285 285 285 285 285 285 286 286 286 287 287 287 287 287 288 288 288 289 289 290 290 290 290 290 290 290 290 290 290 290 290 289 290 290 290 290 290 290 290 290 291 291 292 294 295
283 283 283 283 283 283 283 283 283 283 283 283 283 283 283 283 283 283 283 283 283 283 283 284 284 284 285 285 285 285 285 285 286 286 287 287 287 287 287 288 288 289 289 290 290 290 290 290 291 291 290 289 290 290 290 289 289 289 289 289 289 289 290 290 290 291 292 293 294
282 282 282 282 282 282 282 282 282 282 282 282 282 282 282 282 282 282 282 282 282 282 283 283 284 284 284 284 284 285 285 285 285 286 286 286 286 286 287 287 287 288 288 289 289 290 290 290 290 290 290 290 290 290 289 289 289 289 289 289 289 289 289 289 290 290 291 292 293
282 282 282 281 281 281 282 282 282 282 282 282 282 282 282 281 281 281 281 281 282 282 282 283 283 283 283 283 283 283 284 284 284 285 285 285 285 285 286 286 286 287 288 288 289 289 289 289 289 289 289 289 289 289 289 289 289 288 288 288 288 289 289 289 289 290 290 291 292
281 281 281 281 281 281 281 281 281 281 282 282 281 281 281 281 281 281 281 281 281 282 282 282 282 282 282 282 282 282 283 283 283 283 284 284 284 284 285 285 285 286 287 288 288 288 288 289 289 289 289 289 288 288 288 288 288 288 288 288 289 289 289 289 289 290 290 291 292
281 281 281 280 280 280 281 281 281 281 281 281 281 280 280 280 280 281 281 281 281 281 281 281 281 281 281 281 282 282 282 282 282 283 283 283 283 283 284 284 284 285 286 287 287 287 288 288 288 288 288 288 288 288 288 288 288 288 288 288 288 288 289 289 289 290 290 291 292
280 280 280 280 280 280 280 281 281 281 280 280 280 280 280 280 280 281 281 281 281 281 281 281 281 281 281 281 281 281 281 282 282 282 283 283 283 283 283 284 284 285 285 286 287 287 287 287 288 288 287 287 287 287 287 288 288 288 288 288 288 288 289 289 289 290 290 291 292
280 280 280 280 280 280 280 280 280 280 280 280 280 280 280 280 280 280 280 280 281 281 280 280 280 281 281 281 281 281 281 282 282 282 282 283 283 283 283 283 284 285 286 286 286 287 287 287 287 287 287 287 287 287 287 287 287 288 288 288 288 289 289 289 289 290 290 291 291
279 279 279 279 279 279 280 280 280 280 280 280 280 279 279 279 279 279 280 280 280 280 280 280 280 281 281 281 281 281 281 281 281 282 282 282 283 282 283 283 283 284 285 286 286 286 287 287 287 287 287 287 287 287 287 287 287 287 288 288 288 288 289 289 289 290 290 291 291
279 279 279 279 279 279 279 279 280 279 279 279 279 279 279 279 279 279 279 280 280 280 279 280 280 280 280 280 281 281 281 281 281 282 282 282 282 282 282 282 283 284 285 286 286 286 286 287 287 287 287 287 287 287 287 287 287 287 288 288 288 288 288 289 289 290 290 291 292
279 279 279 279 279 279 279 279 279 279 278 278 278 278 278 278 278 279 279 279 279 279 279 279 279 279 279 280 280 280 281 281 281 281 282 282 282 282 282 282 282 283 284 285 285 286 286 286 287 287 287 286 286 287 287 287 287 287 287 287 288 288 288 289 289 290 290 291 291
279 279 279 279 279 279 279 279 278 278 278 278 278 278 278 278 278 279 279 279 279 279 279 279 279 279 279 280 280 280 281 281 281 281 281 281 281 282 282 282 282 283 283 285 285 286 286 286 286 286 286 286 286 286 286 287 287 287 287 287 288 288 288 289 290 290 290 290 291
279 279 279 279 279 278 278 278 278 277 277 277 277 277 278 278 278 278 279 279 279 279 279 279 279 279 280 280 280 280 281 281 281 281 281 281 282 282 282 282 282 283 283 284 285 285 286 286 286 287 287 286 286 286 286 286 286 286 286 287 287 288 288 289 290 290 290 290 291
279 279 279 279 278 278 278 278 277 277 277 277 277 277 277 278 278 278 279 279 279 279 279 279 279 279 280 280 280 280 280 281 281 281 281 281 282 283 283 282 282 283 283 284 285 286 286 286 286 287 287 286 286 286 286 286 286 286 286 286 287 287 288 288 289 289 290 290 291
279 278 278 278 278 278 277 277 277 277 277 277 277 277 277 278 278 278 279 279 279 279 279 279 279 280 280 280 280 280 280 280 281 281 281 282 282 282 283 282 282 283 283 284 285 286 286 286 287 287 287 286 286 286 286 286 286 285 286 286 286 286 286 286 287 288 288 289 289
Wind_Speed
4 4 4 4 3 3 3 3 3 3 3 3 3 3 3 3 3 4 4 4 4 5 5 5 5 6 6 7 8 8 8 8 9 9 9 8 8 7 6 5 4 4 5 5 5 6 6 6 6 6 6 6 7 7 7 6 7 7 7 6 6 5 6 6 6 7 7 7 6
5 5 4 4 4 3 3 3 3 3 3 3 3 3 3 3 4 4 4 4 4 4 5 5 5 6 7 8 8 8 8 9 9 9 9 8 7 6 5 5 4 4 4 5 5 5 5 6 5 6 6 6 7 7 7 7 7 8 8 9 7 6 5 7 7 7 7 6 5
5 4 4 3 3 3 3 3 3 4 4 4 3 3 3 3 4 4 5 5 5 5 5 5 5 6 6 8 7 7 8 8 9 9 8 7 6 6 5 5 5 5 4 4 5 5 5 5 5 5 5 6 7 7 8 8 7 8 8 9 7 6 6 6 6 6 6 5 5
4 4 4 4 5 5 4 4 4 5 5 4 4 4 3 4 4 4 5 5 5 5 5 6 6 6 6 7 7 8 8 8 8 8 8 7 6 5 5 5 5 5 5 5 5 5 5 5 4 4 5 6 7 8 8 7 7 7 7 7 6 6 6 6 6 5 5 5 5
4 4 5 5 6 6 5 4 5 5 5 4 3 4 4 4 4 4 5 5 5 6 6 6 6 6 6 6 7 8 8 8 8 7 7 7 6 5 5 5 5 5 5 5 5 5 5 4 4 4 5 6 6 7 7 8 8 8 7 6 6 6 6 6 5 5 5 5 5
5 5 5 5 6 6 5 4 5 5 5 4 4 4 5 5 5 5 6 6 6 7 7 7 7 7 7 7 7 7 7 7 7 6 6 7 6 6 6 5 5 5 5 4 4 4 4 4 4 4 5 6 6 6 7 8 8 8 8 7 6 6 5 6 5 5 6 6 7
5 5 5 6 6 6 5 5 5 5 4 4 5 6 7 7 6 7 7 7 7 7 7 6 7 7 8 7 7 7 7 6 6 6 6 6 6 6 6 6 6 5 5 4 4 4 4 4 4 5 5 6 6 7 8 8 8 8 8 8 7 6 6 7 5 5 6 8 9
5 5 6 6 6 6 6 6 5 5 5 5 6 8 9 8 8 8 8 7 7 6 6 6 7 8 9 8 8 7 7 7 7 6 6 6 7 7 7 6 6 6 6 5 5 5 5 4 4 5 5 5 6 7 8 8 9 10 10 10 9 8 7 6 5 6 7 9 10
5 6 6 6 6 7 7 8 7 6 6 7 8 8 9 8 8 8 8 7 7 7 7 6 8 9 9 8 8 8 7 7 7 7 6 6 7 7 7 7 7 7 7 6 6 6 6 5 5 5 6 6 7 7 8 9 10 11 11 10 10 10 9 8 7 7 8 9 11
7 7 7 7 7 8 8 8 8 7 7 7 8 9 9 9 8 8 7 7 7 7 7 7 8 9 9 9 8 8 7 7 7 7 7 7 8 8 8 8 8 9 8 7 7 7 7 6 6 6 6 6 7 8 9 9 10 11 10 9 9 10 11 11 10 10 10 10 11
7 7 7 7 8 8 8 8 7 7 7 7 8 9 9 9 9 9 8 7 8 8 8 8 9 9 9 9 9 8 8 8 8 8 9 9 10 10 10 10 10 11 11 10 8 8 7 6 7 8 8 7 7 8 9 9 10 10 10 9 10 12 13 12 11 11 11 11 12
7 7 7 7 8 8 8 8 8 8 8 8 9 9 10 10 11 10 10 9 9 9 9 9 9 9 9 9 9 9 9 9 10 10 10 11 11 12 12 12 12 12 12 12 10 9 8 8 9 10 10 10 9 8 8 9 10 10 11 11 12 12 13 13 12 11 11 11 12
8 9 9 9 9 9 9 10 9 9 10 10 10 10 10 11 11 11 10 10 10 10 9 9 9 9 9 10 10 10 10 10 11 11 11 11 12 12 13 13 13 14 13 12 11 10 9 10 10 11 11 11 10 9 9 10 10 11 11 12 12 13 13 14 13 13 12 13 13
10 10 10 11 11 10 10 10 10 10 10 11 10 10 10 10 10 10 9 10 10 10 10 10 10 9 10 11 11 11 11 12 12 12 12 13 13 13 13 14 14 14 13 12 11 11 11 11 11 12 12 12 12 11 11 10 11 11 12 12 13 13 14 14 14 14 13 14 14
10 11 11 11 11 10 10 10 9 9 9 10 10 9 9 9 9 9 9 10 10 10 10 10 10 11 11 12 13 13 13 13 13 14 14 14 14 14 14 14 15 14 14 13 13 13 13 13 13 13 13 14 14 13 13 12 12 12 12 12 13 13 14 14 14 14 14 14 15
10 10 11 11 10 10 10 9 9 9 9 10 10 9 9 9 9 9 9 10 10 10 10 11 12 12 12 13 14 14 15 15 15 15 15 15 15 15 15 15 15 15 15 15 14 14 14 14 13 14 14 15 15 15 14 14 13 13 13 13 13 14 14 15 15 15 15 15 15
10 10 10 10 10 10 10 10 9 9 9 10 11 10 10 10 9 10 10 11 11 11 12 13 13 13 13 14 14 14 15 15 16 16 16 16 17 17 17 16 16 16 16 16 15 15 15 15 15 15 15 16 16 16 15 15 15 14 14 14 14 14 15 15 16 16 16 16 16
10 10 10 10 11 11 11 11 11 11 11 12 12 12 11 11 11 12 12 12 12 13 14 14 14 14 14 15 14 14 14 15 16 16 17 17 17 18 18 18 17 17 16 16 16 17 17 17 17 17 16 16 16 16 16 16 15 15 15 15 15 15 15 16 17 16 16 16 17
10 10 10 11 11 12 12 13 13 13 13 13 13 13 13 13 13 14 14 14 14 15 15 15 14 14 15 15 15 14 14 15 16 17 17 18 18 18 18 18 18 18 18 18 18 18 18 18 18 18 17 17 16 16 16 16 16 16 16 16 16 16 16 16 17 17 17 17 17
10 11 11 12 12 13 14 14 14 14 14 14 14 14 15 15 15 15 15 15 15 15 15 15 14 14 15 15 16 15 15 14 16 17 17 17 18 18 18 19 19 19 19 19 19 19 19 19 19 19 18 18 18 17 17 17 17 17 17 16 16 16 17 17 18 18 18 18 18
11 12 12 13 14 14 15 15 15 15 15 15 15 15 15 15 15 15 16 16 15 15 15 15 15 15 15 15 16 16 15 14 15 16 17 17 18 18 19 19 19 19 18 18 19 19 19 19 19 19 19 18 18 18 18 18 18 18 17 16 17 17 18 18 19 19 19 19 19
12 12 13 14 14 15 15 16 16 15 15 15 15 15 15 15 15 15 15 15 15 15 15 15 15 15 15 15 16 16 16 15 15 16 16 16 17 17 18 18 19 19 18 18 18 19 19 19 20 20 19 19 19 19 18 18 18 18 18 18 18 18 18 19 19 19 19 19 20
12 13 13 14 15 15 16 16 16 16 16 15 15 15 15 15 15 15 15 15 15 15 15 15 15 15 15 15 16 16 16 16 16 16 16 16 17 17 18 18 19 19 19 18 18 18 18 18 18 19 19 18 18 18 17 17 17 17 18 18 19 19 18 18 18 18 19 19 20
13 13 13 13 14 15 16 16 16 16 16 16 16 16 15 15 15 15 15 15 15 15 15 14 14 15 16 16 16 16 17 17 18 18 18 18 18 18 19 19 19 19 19 17 17 17 17 15 16 16 17 17 16 16 16 16 16 16 17 18 19 19 18 18 18 18 18 18 18
12 13 13 13 14 15 15 15 16 16 16 17 17 16 16 16 16 16 16 16 16 17 17 16 16 16 16 16 17 17 18 18 19 19 19 20 20 19 19 18 18 17 16 15 19 22 22 19 16 15 15 15 15 15 15 15 15 16 17 17 18 18 18 19 19 19 19 19 19
12 13 13 14 14 15 15 16 16 16 17 17 17 18 17 17 16 16 17 17 18 18 17 17 17 16 16 16 17 18 18 18 18 19 19 19 20 20 19 18 17 16 15 17 21 23 24 24 22 19 16 15 15 15 15 15 15 15 16 17 17 17 18 18 19 19 19 19 19
12 12 13 14 14 15 16 16 16 17 17 18 19 19 19 18 17 17 18 18 18 18 18 17 17 16 16 16 18 18 19 18 18 18 19 19 20 20 19 18 16 15 15 19 22 24 24 24 24 22 19 16 15 15 15 15 15 16 16 17 17 17 18 19 20 20 19 19 19
12 12 13 14 15 15 16 17 17 18 18 19 19 19 19 19 19 19 19 19 19 18 17 16 16 15 14 14 16 18 18 18 18 18 18 18 19 19 19 18 16 16 17 21 24 25 25 24 24 23 21 18 15 14 15 15 16 16 16 16 16 17 18 18 18 18 18 19 19
12 12 13 14 15 16 17 17 18 18 19 19 19 20 20 20 20 20 20 20 19 18 17 15 14 13 14 15 17 18 19 20 18 18 17 18 19 20 20 20 19 20 21 25 26 26 26 25 25 24 24 22 16 13 13 14 14 14 15 14 15 15 16 16 16 16 17 18 18
12 13 13 15 16 17 17 18 18 18 19 18 19 20 20 20 21 21 21 21 20 19 18 16 15 16 17 18 18 19 19 19 19 18 19 20 21 21 21 21 20 21 22 25 27 27 27 27 27 26 26 24 20 16 14 14 14 14 14 14 15 16 17 18 18 18 17 17 17
13 13 14 15 16 17 18 18 18 19 19 18 19 20 21 21 21 21 21 21 20 20 19 19 19 20 20 20 20 20 20 20 20 20 20 21 22 22 23 23 22 22 23 26 28 29 29 29 29 28 27 26 21 17 15 15 15 15 15 15 16 17 18 18 18 18 18 18 18
14 14 15 16 17 18 18 19 19 19 19 20 20 21 21 22 22 21 21 20 20 20 20 21 21 22 22 22 21 21 22 21 21 21 21 21 22 23 23 23 23 23 24 27 29 30 30 30 30 30 29 27 23 20 18 17 17 17 17 18 20 20 20 18 17 18 19 19 19
14 15 16 17 18 19 19 19 19 19 19 20 20 21 21 22 22 21 21 20 19 20 20 21 21 22 22 22 22 22 23 22 22 23 23 23 23 24 24 23 22 22 24 28 30 30 31 31 30 30 29 28 24 21 19 19 17 17 17 18 19 21 21 21 20 19 19 20 19
14 16 17 18 18 19 19 19 19 19 19 20 20 21 21 21 22 22 21 20 19 19 19 20 20 21 21 21 21 22 22 21 21 22 23 24 24 24 24 22 19 20 23 27 29 30 30 30 30 30 29 28 23 20 19 20 18 17 17 19 19 20 21 21 21 21 21 21 19
15 16 17 18 19 19 19 19 19 19 20 20 21 21 21 21 22 21 21 20 20 20 20 20 20 20 20 20 21 21 22 22 22 23 23 23 24 24 25 24 22 23 26 29 31 31 31 31 30 30 29 26 21 18 18 19 19 19 19 20 21 21 21 21 21 21 21 21 20
15 16 17 18 19 19 20 20 21 21 21 21 21 21 21 21 21 20 20 20 20 21 21 20 20 20 20 21 21 21 21 22 23 23 23 23 24 24 25 25 24 26 28 31 32 32 32 32 31 31 29 24 18 16 16 16 16 17 19 20 21 21 22 22 21 20 20 19 20
16 16 17 18 19 20 21 21 21 21 21 21 21 21 21 21 21 20 20 19 20 20 21 20 20 21 21 22 22 22 22 23 24 24 24 24 24 25 25 25 25 26 28 30 31 32 33 32 32 31 28 22 17 15 15 14 14 15 17 18 19 20 20 19 19 20 20 20 19
17 17 18 19 20 21 21 21 21 21 21 21 21 21 21 21 21 20 19 19 19 20 21 21 21 22 22 22 23 23 24 24 24 25 25 25 25 25 25 26 26 26 26 28 30 32 33 32 32 31 27 21 17 15 14 13 13 14 15 16 16 17 18 17 16 17 18 20 21
17 18 19 20 20 21 21 21 21 21 21 22 22 22 21 21 20 19 19 18 19 19 21 21 22 23 23 23 23 24 25 25 25 25 26 26 25 26 26 26 26 25 25 27 30 31 32 32 32 31 28 22 18 15 13 12 13 14 15 15 15 16 17 16 15 15 16 19 22
18 18 19 20 20 21 21 21 22 21 21 21 22 22 22 21 20 20 19 18 19 19 20 21 23 24 24 24 23 24 25 26 25 25 25 25 26 27 27 27 26 25 25 27 30 31 32 32 32 31 28 22 17 14 13 12 13 15 15 15 14 14 14 13 12 12 13 15 20
17 18 19 20 20 20 21 22 22 22 21 21 22 22 21 20 20 19 19 18 19 19 19 19 22 24 25 24 23 23 24 26 26 26 26 26 26 26 26 26 25 25 25 26 28 30 31 32 32 31 28 21 16 14 12 12 13 14 15 15 12 10 9 8 8 9 10 12 14
Wind_Direction
246 243 239 237 235 235 237 238 234 230 231 235 247 257 266 277 284 288 291 293 292 291 291 289 289 289 290 290 291 291 292 293 292 291 291 291 290 291 293 296 301 308 313 316 321 324 326 327 327 324 319 316 311 307 302 298 295 291 286 281 277 275 274 275 276 278 279 280 281
246 242 238 233 230 230 234 242 241 240 238 239 244 252 262 271 279 284 287 287 283 283 284 285 284 284 286 287 288 290 290 290 290 289 288 286 285 286 288 293 297 302 306 310 315 318 320 322 322 319 316 313 310 307 303 299 296 291 287 282 278 275 273 271 270 270 272 274 274
245 244 241 234 231 233 238 244 247 248 249 251 251 254 262 269 276 280 281 280 277 278 279 280 279 280 281 284 286 287 287 287 287 286 285 282 281 281 284 289 295 298 301 304 308 310 312 315 315 313 311 310 308 305 302 298 295 290 286 282 279 276 273 270 267 266 267 267 266
244 243 242 240 238 238 239 242 248 251 253 254 257 259 263 268 272 275 276 277 278 277 275 274 275 276 277 279 281 282 283 283 282 281 280 276 275 275 278 283 289 293 297 300 302 303 305 307 308 307 306 305 302 300 299 298 294 290 286 282 279 275 272 269 267 264 262 262 261
248 243 239 240 240 238 237 237 244 249 253 256 263 268 271 272 273 276 278 279 278 275 274 274 275 275 274 274 275 277 278 279 278 277 275 273 271 271 273 276 280 284 288 292 294 295 298 301 303 302 302 300 298 296 295 295 293 290 286 283 278 274 270 268 265 262 260 259 257
254 251 246 242 241 240 240 240 242 246 251 258 267 273 275 275 276 276 277 277 277 277 277 278 277 276 275 274 274 275 276 277 274 272 270 270 270 271 272 272 272 274 277 280 282 285 289 297 298 298 297 296 293 291 290 292 291 290 288 284 278 273 269 265 263 260 258 256 255
258 259 257 253 247 245 247 248 248 250 254 260 266 269 270 271 273 273 273 275 279 281 282 281 279 278 278 277 277 277 276 276 272 268 265 265 267 269 269 269 269 269 269 269 271 274 280 287 291 293 293 293 291 289 288 290 291 291 290 288 284 278 270 263 259 257 256 255 254
271 269 266 263 258 256 255 257 259 263 267 271 269 269 269 270 272 273 275 279 281 281 281 282 280 279 278 278 277 276 275 272 270 266 261 260 264 266 268 269 271 270 267 261 262 266 272 278 280 283 285 287 285 285 285 287 288 288 288 287 286 282 274 265 257 252 251 252 252
290 285 280 276 273 270 268 268 270 273 277 279 277 276 275 275 274 276 278 280 279 280 281 283 282 281 280 278 276 274 272 270 268 266 263 261 264 268 271 274 276 276 273 268 267 269 271 273 273 274 275 277 278 279 279 280 281 282 282 283 283 281 277 271 260 252 248 248 250
297 295 293 290 286 283 282 282 281 282 283 286 286 285 284 282 280 278 277 277 279 281 281 281 281 281 280 278 275 273 272 270 271 272 272 272 273 275 277 280 281 282 281 278 276 275 273 271 269 267 266 266 268 270 272 272 274 276 277 279 280 279 278 274 266 258 251 247 247
298 297 297 296 295 295 295 297 295 293 291 290 290 289 288 285 283 281 280 280 282 281 279 277 278 277 277 276 275 274 274 275 277 279 280 281 281 281 282 282 283 283 283 282 280 278 275 272 269 266 264 263 264 266 267 268 269 272 274 276 278 279 278 275 270 264 258 252 250
300 299 299 299 299 301 301 300 298 295 291 288 285 284 283 283 282 282 282 282 281 279 277 276 275 274 275 276 276 277 278 278 280 281 282 282 282 283 283 283 283 283 283 282 280 278 275 273 271 270 269 267 266 266 265 265 266 269 271 274 275 276 276 274 271 267 262 257 254
305 305 304 303 302 301 299 297 294 291 288 284 281 279 279 280 281 282 282 282 280 280 279 279 276 275 275 276 277 278 279 280 280 280 280 280 281 282 282 282 282 283 282 281 279 276 274 273 271 271 270 269 268 266 264 263 264 266 268 270 271 272 272 272 271 267 263 259 256
310 309 308 306 305 303 300 298 295 293 291 288 285 284 284 284 284 284 283 283 282 281 281 281 279 277 276 276 276 277 278 278 279 279 279 278 279 280 280 281 281 281 281 280 278 275 273 272 271 271 270 270 269 267 264 262 262 263 264 266 267 268 269 271 270 268 264 260 257
314 313 312 311 311 309 307 305 303 302 300 298 296 295 293 291 290 288 286 284 282 282 282 282 280 279 277 276 276 276 276 277 277 277 277 278 278 278 279 280 280 279 279 278 277 275 273 272 272 272 271 271 271 269 267 264 262 262 262 262 263 265 267 268 268 267 264 261 258
317 317 318 318 317 316 314 312 310 309 307 304 302 300 297 294 291 289 286 284 282 282 281 280 280 279 279 277 276 276 277 277 277 277 277 277 277 278 278 278 278 278 277 276 276 275 273 273 272 272 272 272 271 271 269 267 265 263 262 261 262 263 264 265 265 264 263 261 258
319 319 320 319 318 317 314 312 310 307 304 302 300 297 295 292 291 288 286 283 283 282 281 279 279 279 279 279 278 277 277 277 277 277 277 277 277 277 277 277 277 277 276 276 275 275 274 274 274 273 272 272 271 270 269 268 267 265 264 263 263 264 264 264 264 263 261 259 256
317 317 317 316 314 312 310 307 305 302 300 299 297 296 294 292 291 289 288 286 285 283 282 280 279 278 278 278 277 277 277 277 277 277 277 277 277 277 277 277 276 276 276 275 275 275 275 275 275 274 272 271 270 269 268 267 267 266 266 266 266 266 266 265 264 263 261 259 256
315 314 313 312 310 308 306 304 303 301 300 298 297 296 295 293 292 291 290 289 287 285 283 282 281 279 278 278 277 276 276 276 277 277 276 276 276 276 276 275 275 275 275 274 274 274 274 274 274 273 272 270 269 268 267 266 267 267 267 268 268 268 268 267 265 264 262 259 258
313 312 310 309 308 307 305 304 303 302 301 300 299 297 296 295 294 292 291 290 289 288 286 284 283 281 280 279 279 278 277 276 277 277 276 276 275 275 274 275 275 275 274 274 273 273 273 272 272 272 271 270 269 269 268 268 268 268 268 269 269 269 269 268 267 265 264 262 260
310 309 309 308 307 306 306 305 304 303 302 301 299 298 297 296 295 294 292 292 291 291 289 287 285 283 282 282 281 280 279 278 277 277 276 276 275 275 275 275 275 274 274 273 272 272 271 271 271 271 270 270 269 269 269 269 269 269 268 268 267 267 267 266 265 265 264 263 262
309 308 308 308 307 306 306 305 304 303 302 301 300 299 297 297 296 295 294 294 294 293 291 289 288 286 285 284 284 283 282 281 279 278 277 277 276 275 275 275 275 274 273 272 271 270 270 269 268 268 268 267 267 266 266 266 267 267 267 266 266 265 265 263 263 262 261 261 261
308 308 308 307 307 306 306 305 304 304 303 301 300 300 299 298 297 296 296 296 295 293 292 291 290 289 288 286 285 285 284 283 281 279 277 275 275 274 274 274 274 273 271 270 269 268 267 267 266 265 264 264 264 263 263 263 264 265 266 266 266 266 265 264 262 260 259 257 257
308 308 308 307 307 307 306 305 305 304 303 302 301 301 300 299 298 298 297 296 294 293 292 291 290 289 288 287 286 284 283 281 280 278 277 275 274 274 273 273 272 271 270 268 266 265 264 263 264 263 263 262 261 261 261 261 262 262 264 265 267 267 267 266 264 262 260 257 255
308 308 308 308 307 307 306 306 305 304 303 302 302 301 300 299 298 297 296 295 294 293 292 291 290 289 288 287 285 283 281 279 278 277 277 276 275 274 273 272 271 269 268 266 264 262 261 259 259 259 260 260 260 260 260 259 259 260 261 263 265 266 267 267 266 264 262 260 257
309 309 309 308 308 307 306 305 305 304 303 302 302 301 300 298 297 296 295 294 293 293 292 292 290 289 288 286 284 282 280 278 277 276 276 276 275 273 272 270 269 268 266 264 263 262 260 259 257 256 256 258 259 260 260 259 258 258 259 260 262 263 264 265 265 263 262 260 257
311 310 309 309 308 307 306 305 304 303 302 302 301 300 299 299 298 297 296 294 294 293 293 291 290 288 287 284 282 281 279 278 277 276 275 275 274 272 271 269 267 265 264 263 263 262 261 259 257 255 254 255 256 257 258 259 259 259 259 259 260 261 262 264 265 266 265 263 260
311 310 310 310 308 307 305 304 304 303 302 301 300 300 299 299 298 297 295 294 294 294 293 291 289 288 286 283 282 281 280 280 279 278 277 275 274 272 271 269 267 265 264 263 263 262 262 260 259 257 255 253 255 256 257 259 260 260 259 259 259 259 260 261 263 264 265 265 264
311 311 310 309 307 306 305 304 303 302 301 301 300 300 299 298 298 297 296 295 295 294 292 291 290 288 286 284 284 283 283 282 280 279 277 275 273 272 270 269 268 267 266 265 265 264 263 262 261 260 258 256 256 256 257 258 259 259 258 258 256 256 256 257 258 260 261 263 263
312 312 310 308 306 305 304 303 302 301 301 300 300 300 299 298 297 296 296 295 294 292 291 290 290 288 286 284 285 284 283 281 279 278 276 274 273 271 270 269 269 268 267 267 266 266 265 264 263 262 261 259 258 258 258 257 257 257 256 255 254 253 254 255 256 257 257 258 260
313 312 310 307 305 304 303 302 301 301 301 300 300 299 298 297 296 295 295 294 293 292 290 289 287 286 284 283 282 281 280 278 277 276 274 273 272 271 270 270 269 268 267 267 266 266 265 265 264 263 262 261 259 257 256 255 255 254 253 253 252 252 252 254 254 253 253 254 256
313 311 309 307 304 303 302 302 302 301 301 300 299 298 297 296 295 294 293 293 292 291 290 288 286 285 283 282 280 279 277 276 275 273 272 271 271 270 270 269 268 267 266 266 266 265 265 264 264 263 262 261 259 257 255 254 253 252 252 252 251 251 251 252 252 251 251 252 253
312 310 308 306 304 303 302 302 302 301 301 299 298 297 296 296 295 294 293 293 292 290 289 287 285 284 282 281 280 278 276 275 273 272 271 270 269 269 268 268 266 265 264 264 264 264 263 263 262 262 261 259 258 255 253 252 251 251 250 249 250 250 250 250 250 249 249 250 251
311 309 307 305 304 303 303 302 302 301 300 299 298 297 297 297 296 295 294 293 292 289 287 285 284 282 281 279 278 277 276 274 273 271 270 269 269 268 267 265 264 263 262 262 262 262 261 261 260 259 259 257 256 254 252 250 250 249 248 248 248 248 248 247 247 246 247 247 249
311 309 307 305 304 303 303 303 302 302 301 299 299 298 298 297 296 295 294 293 292 289 287 285 283 281 279 278 276 275 274 273 272 270 269 268 268 267 265 264 263 262 262 262 262 262 261 260 259 258 258 256 255 252 250 249 248 247 247 247 247 246 246 245 244 244 244 245 246
310 308 306 305 304 303 304 304 303 303 302 301 300 299 299 297 296 295 294 293 292 290 287 285 284 281 279 278 276 274 273 272 271 271 269 268 266 265 264 263 263 262 261 261 261 261 261 260 259 258 257 256 254 251 249 248 247 246 246 245 245 245 244 243 243 242 242 242 242
310 308 307 305 305 304 305 305 304 303 302 301 300 299 298 298 296 295 294 294 292 290 288 286 284 282 280 278 277 275 273 272 271 271 270 268 266 265 264 263 262 262 261 261 261 260 260 259 258 257 256 254 252 250 248 247 246 245 245 244 244 243 242 242 241 241 240 239 236
310 309 308 307 306 306 306 305 304 303 302 301 300 299 298 298 296 295 294 293 291 290 289 287 285 282 280 279 278 276 274 272 270 269 269 267 265 264 263 263 262 261 260 260 259 259 259 258 257 256 254 252 250 248 247 246 245 245 244 244 244 243 241 240 239 237 235 232 226
311 310 309 308 307 306 305 305 304 303 302 301 300 299 298 297 295 294 294 292 290 289 288 287 285 283 281 280 279 277 275 273 270 268 267 266 264 263 262 262 262 261 260 259 259 258 258 257 256 255 253 250 248 246 245 244 244 244 244 245 246 245 242 239 235 231 225 219 210
311 310 309 308 307 306 305 304 303 302 302 301 300 299 298 296 295 294 293 291 289 288 287 286 284 283 282 281 280 278 276 274 272 269 267 265 264 263 262 262 262 261 260 259 258 258 257 256 255 253 251 249 245 243 241 241 243 244 244 244 244 243 239 232 224 216 208 202 194
310 310 309 307 306 305 305 304 303 302 301 299 298 297 296 296 294 294 293 291 290 289 287 285 285 284 284 283 281 280 278 276 274 271 268 266 265 264 263 262 261 261 260 259 257 256 256 255 254 252 250 247 243 240 239 239 242 243 243 241 235 229 221 210 200 190 183 179 175